^^
Garrymore Weather Station Historical Data
 
Daily Summary for September 20, 2020 Units:  Metric    English   Both
Daily Weekly Monthly Yearly Custom
  Current: High: Low: Average:
Temperature: 19 °C 21 °C 8 °C 13.7 °C
Dew Point: 9 °C 11 °C -19 °C 7.6 °C
Humidity: 53% 92% 10% 72%
Wind Speed: 2km/h 93km/h 0km/h 5.2km/h
Wind Gust: 6km/h 93km/h - -
WindESE - - East
Pressure: 1023.71 hPa 1026.28 hPa 1023.71 hPa -
Precipitation: 0 mm      
Historical Graphs
 
 
Tabular Data for September 20, 2020
Time Temperature Dew Point Pressure Wind Wind Speed Wind Gust Humidity Rainfall Rate (Hourly) solar
00:00 9 °C 7 °C 1025.6 hPa ENE 5 km/h 11 km/h 87% 0 mm 0 W/m2
00:05 9 °C 7 °C 1025.6 hPa NE 5 km/h 10 km/h 87% 0 mm 0 W/m2
00:10 9 °C 7 °C 1025.7 hPa NE 5 km/h 13 km/h 87% 0 mm 0 W/m2
00:15 9 °C 7 °C 1025.4 hPa N 5 km/h 10 km/h 87% 0 mm 0 W/m2
00:20 9 °C 7 °C 1025.4 hPa N 3 km/h 8 km/h 87% 0 mm 0 W/m2
00:25 9 °C 7 °C 1025.6 hPa NNE 2 km/h 6 km/h 87% 0 mm 0 W/m2
00:30 9 °C 7 °C 1025.6 hPa N 3 km/h 8 km/h 87% 0 mm 0 W/m2
00:35 9 °C 7 °C 1025.6 hPa N 2 km/h 8 km/h 88% 0 mm 0 W/m2
00:40 9 °C 7 °C 1025.7 hPa NNW 2 km/h 8 km/h 88% 0 mm 0 W/m2
00:45 9 °C 7 °C 1025.4 hPa Calm   3 km/h 88% 0 mm 0 W/m2
00:50 9 °C 7 °C 1025.7 hPa NW 2 km/h 3 km/h 88% 0 mm 0 W/m2
00:55 8 °C 7 °C 1025.6 hPa WNW 2 km/h 5 km/h 88% 0 mm 0 W/m2
01:00 8 °C 7 °C 1025.5 hPa W 2 km/h 3 km/h 88% 0 mm 0 W/m2
01:05 8 °C 7 °C 1025.5 hPa W 2 km/h 3 km/h 88% 0 mm 0 W/m2
01:10 8 °C 7 °C 1025.5 hPa W 2 km/h 5 km/h 88% 0 mm 0 W/m2
01:15 8 °C 7 °C 1025.3 hPa NW 3 km/h 8 km/h 88% 0 mm 0 W/m2
01:20 8 °C 7 °C 1025.4 hPa NNE 3 km/h 6 km/h 88% 0 mm 0 W/m2
01:25 8 °C 7 °C 1025.4 hPa NNE 5 km/h 11 km/h 88% 0 mm 0 W/m2
01:30 8 °C 6 °C 1025.4 hPa NE 2 km/h 8 km/h 88% 0 mm 0 W/m2
01:35 8 °C 6 °C 1025.3 hPa NE 3 km/h 6 km/h 88% 0 mm 0 W/m2
01:40 8 °C 6 °C 1025.4 hPa NE 10 km/h 10 km/h 88% 0 mm 0 W/m2
01:45 8 °C 6 °C 1025.4 hPa NE 5 km/h 10 km/h 88% 0 mm 0 W/m2
01:50 8 °C 6 °C 1025.3 hPa ENE 8 km/h 13 km/h 88% 0 mm 0 W/m2
01:55 8 °C 6 °C 1025.3 hPa ENE 2 km/h 13 km/h 88% 0 mm 0 W/m2
02:00 8 °C 7 °C 1025.3 hPa NE 2 km/h 6 km/h 89% 0 mm 0 W/m2
02:05 8 °C 7 °C 1025.03 hPa NE 2 km/h 6 km/h 89% 0 mm 0 W/m2
02:10 8 °C 7 °C 1025.3 hPa NE 5 km/h 10 km/h 89% 0 mm 0 W/m2
02:15 8 °C 7 °C 1025.3 hPa NE 5 km/h 10 km/h 89% 0 mm 0 W/m2
02:20 8 °C 7 °C 1025.3 hPa NE 2 km/h 10 km/h 89% 0 mm 0 W/m2
02:25 8 °C 7 °C 1025.3 hPa NE 2 km/h 8 km/h 89% 0 mm 0 W/m2
02:30 8 °C 7 °C 1025.4 hPa NE 2 km/h 8 km/h 90% 0 mm 0 W/m2
02:35 8 °C 7 °C 1025.4 hPa ENE 2 km/h 6 km/h 90% 0 mm 0 W/m2
02:40 8 °C 7 °C 1025.5 hPa NE 2 km/h 6 km/h 90% 0 mm 0 W/m2
02:45 8 °C 7 °C 1025.5 hPa NE 2 km/h 6 km/h 90% 0 mm 0 W/m2
02:50 8 °C 7 °C 1025.5 hPa NE 3 km/h 6 km/h 90% 0 mm 0 W/m2
02:55 8 °C 7 °C 1025.6 hPa NE 2 km/h 5 km/h 90% 0 mm 0 W/m2
03:00 8 °C 7 °C 1025.4 hPa NE 2 km/h 5 km/h 90% 0 mm 0 W/m2
03:05 8 °C 7 °C 1025.5 hPa Calm   5 km/h 90% 0 mm 0 W/m2
03:10 9 °C 7 °C 1025.47 hPa NE 2 km/h 5 km/h 91% 0 mm 0 W/m2
03:15 9 °C 7 °C 1025.33 hPa NNE 2 km/h 5 km/h 91% 0 mm 0 W/m2
03:20 9 °C 7 °C 1024.99 hPa NNE 2 km/h 3 km/h 91% 0 mm 0 W/m2
03:25 9 °C 7 °C 1025.2 hPa NNE 2 km/h 3 km/h 91% 0 mm 0 W/m2
03:30 9 °C 7 °C 1025.09 hPa NNE 2 km/h 5 km/h 91% 0 mm 0 W/m2
03:35 9 °C 7 °C 1025.09 hPa NNE 2 km/h 3 km/h 91% 0 mm 0 W/m2
03:40 9 °C 7 °C 1025.09 hPa Calm   3 km/h 91% 0 mm 0 W/m2
03:45 9 °C 7 °C 1025.09 hPa Calm   3 km/h 91% 0 mm 0 W/m2
03:50 9 °C 7 °C 1025.2 hPa Calm   3 km/h 91% 0 mm 0 W/m2
03:55 9 °C 7 °C 1025.09 hPa Calm   3 km/h 91% 0 mm 0 W/m2
04:00 9 °C 7 °C 1025.09 hPa NNE 2 km/h 3 km/h 91% 0 mm 0 W/m2
04:05 9 °C 7 °C 1025.2 hPa NNE 2 km/h 3 km/h 91% 0 mm 0 W/m2
04:10 9 °C 7 °C 1025.09 hPa NE 2 km/h 3 km/h 91% 0 mm 0 W/m2
04:15 8 °C 7 °C 1025.09 hPa NE 2 km/h 3 km/h 91% 0 mm 0 W/m2
04:20 8 °C 7 °C 1025.2 hPa NNE 2 km/h 3 km/h 91% 0 mm 0 W/m2
04:25 9 °C 7 °C 1024.99 hPa Calm   3 km/h 91% 0 mm 0 W/m2
04:30 9 °C 7 °C 1025.09 hPa NNE 2 km/h 3 km/h 91% 0 mm 0 W/m2
04:35 8 °C 7 °C 1025.2 hPa NE 2 km/h 3 km/h 91% 0 mm 0 W/m2
04:40 8 °C 7 °C 1024.99 hPa NE 2 km/h 3 km/h 91% 0 mm 0 W/m2
04:45 8 °C 7 °C 1024.89 hPa Calm   3 km/h 91% 0 mm 0 W/m2
04:50 8 °C 7 °C 1024.99 hPa NE 2 km/h 3 km/h 91% 0 mm 0 W/m2
04:55 8 °C 7 °C 1024.89 hPa Calm   3 km/h 91% 0 mm 0 W/m2
05:00 8 °C 7 °C 1024.99 hPa NE 2 km/h 3 km/h 91% 0 mm 0 W/m2
05:05 8 °C 7 °C 1024.79 hPa Calm   3 km/h 91% 0 mm 0 W/m2
05:10 8 °C 7 °C 1024.89 hPa NE 2 km/h 3 km/h 91% 0 mm 0 W/m2
05:15 8 °C 7 °C 1024.82 hPa NE 2 km/h 3 km/h 91% 0 mm 0 W/m2
05:20 8 °C 7 °C 1024.82 hPa NE 2 km/h 3 km/h 91% 0 mm 0 W/m2
05:25 8 °C 7 °C 1024.92 hPa NE 2 km/h 3 km/h 91% 0 mm 0 W/m2
05:30 8 °C 7 °C 1025.09 hPa Calm   3 km/h 91% 0 mm 0 W/m2
05:35 8 °C 7 °C 1025.3 hPa Calm   3 km/h 92% 0 mm 0 W/m2
05:40 9 °C 7 °C 1025.2 hPa NNE 2 km/h 3 km/h 92% 0 mm 0 W/m2
05:45 9 °C 7 °C 1025.3 hPa Calm   3 km/h 92% 0 mm 0 W/m2
05:50 9 °C 7 °C 1025.3 hPa NE 2 km/h 3 km/h 92% 0 mm 0 W/m2
05:55 9 °C 8 °C 1025.3 hPa NE 2 km/h 3 km/h 92% 0 mm 0 W/m2
06:00 9 °C 8 °C 1025.2 hPa Calm   3 km/h 92% 0 mm 0 W/m2
06:05 9 °C 7 °C 1025.13 hPa E 2 km/h 3 km/h 92% 0 mm 0 W/m2
06:10 9 °C 7 °C 1025.2 hPa Calm   3 km/h 92% 0 mm 0 W/m2
06:15 9 °C 7 °C 1025.5 hPa Calm   3 km/h 92% 0 mm 0 W/m2
06:20 9 °C 8 °C 1025.5 hPa Calm   3 km/h 92% 0 mm 0 W/m2
06:25 9 °C 8 °C 1025.5 hPa Calm   3 km/h 92% 0 mm 0 W/m2
06:30 9 °C 8 °C 1025.6 hPa Calm   3 km/h 92% 0 mm 0 W/m2
06:35 9 °C 8 °C 1025.5 hPa Calm   3 km/h 92% 0 mm 0 W/m2
06:40 9 °C 8 °C 1025.6 hPa Calm   3 km/h 91% 0 mm 0 W/m2
06:45 9 °C 8 °C 1025.7 hPa Calm   3 km/h 92% 0 mm 0 W/m2
06:50 9 °C 8 °C 1025.8 hPa Calm   3 km/h 92% 0 mm 0 W/m2
06:55 9 °C 8 °C 1025.87 hPa Calm   3 km/h 92% 0 mm 0 W/m2
07:00 9 °C 8 °C 1025.74 hPa Calm   3 km/h 92% 0 mm 0 W/m2
07:05 9 °C 8 °C 1026.01 hPa Calm   3 km/h 92% 0 mm 0 W/m2
07:10 9 °C 8 °C 1025.91 hPa Calm   3 km/h 92% 0 mm 0 W/m2
07:15 10 °C 8 °C 1025.8 hPa Calm   3 km/h 92% 0 mm 0 W/m2
07:20 10 °C 9 °C 1025.91 hPa Calm   3 km/h 92% 0 mm 0 W/m2
07:25 10 °C 9 °C 1026.01 hPa Calm   3 km/h 92% 0 mm 0 W/m2
07:30 10 °C 9 °C 1026.01 hPa Calm   3 km/h 92% 0 mm 0 W/m2
07:35 10 °C 9 °C 1026.01 hPa NE 2 km/h 3 km/h 92% 0 mm 0 W/m2
07:40 10 °C 9 °C 1026.11 hPa Calm   3 km/h 91% 0 mm 0 W/m2
07:45 10 °C 9 °C 1026.18 hPa Calm   3 km/h 91% 0 mm 0 W/m2
07:50 10 °C 9 °C 1026.21 hPa Calm   3 km/h 91% 0 mm 0 W/m2
07:55 10 °C 9 °C 1025.91 hPa Calm   3 km/h 91% 0 mm 0 W/m2
08:00 10 °C 9 °C 1026.18 hPa Calm   3 km/h 91% 0 mm 0 W/m2
08:05 10 °C 9 °C 1026.01 hPa ENE 2 km/h 3 km/h 91% 0 mm 0 W/m2
08:10 10 °C 9 °C 1026.01 hPa Calm   3 km/h 91% 0 mm 0 W/m2
08:15 10 °C 9 °C 1025.91 hPa ENE 2 km/h 3 km/h 91% 0 mm 0 W/m2
08:20 10 °C 9 °C 1026.01 hPa Calm   3 km/h 91% 0 mm 0 W/m2
08:25 10 °C 9 °C 1025.91 hPa Calm   3 km/h 91% 0 mm 0 W/m2
08:35 11 °C 9 °C 1025.91 hPa Calm   3 km/h 91% 0 mm 0 W/m2
08:40 11 °C 9 °C 1026.01 hPa Calm   3 km/h 91% 0 mm 0 W/m2
08:45 11 °C 9 °C 1026.01 hPa Calm   3 km/h 91% 0 mm 0 W/m2
08:50 11 °C 9 °C 1025.91 hPa Calm   3 km/h 91% 0 mm 0 W/m2
08:55 11 °C 9 °C 1026.01 hPa Calm   3 km/h 91% 0 mm 0 W/m2
09:00 11 °C 9 °C 1025.91 hPa Calm   3 km/h 90% 0 mm 0 W/m2
09:05 11 °C 9 °C 1026.18 hPa Calm   2 km/h 90% 0 mm 0 W/m2
09:10 11 °C 10 °C 1025.91 hPa Calm   3 km/h 90% 0 mm 0 W/m2
09:15 11 °C 10 °C 1025.91 hPa Calm   3 km/h 90% 0 mm 0 W/m2
09:20 12 °C 10 °C 1026.11 hPa Calm   3 km/h 90% 0 mm 0 W/m2
09:25 12 °C 10 °C 1026.01 hPa Calm   3 km/h 90% 0 mm 0 W/m2
09:30 12 °C -5 °C 1025.91 hPa E 69 km/h 93 km/h 31% 0 mm 0 W/m2
09:35 12 °C -19 °C 1026.28 hPa E 93 km/h 93 km/h 10% 0 mm 0 W/m2
09:40 12 °C -19 °C 1026.01 hPa E 93 km/h 93 km/h 10% 0 mm 0 W/m2
09:45 12 °C -19 °C 1026.11 hPa E 93 km/h 93 km/h 10% 0 mm 0 W/m2
09:50 12 °C -19 °C 1026.18 hPa E 93 km/h 93 km/h 10% 0 mm 0 W/m2
09:55 12 °C -19 °C 1026.01 hPa E 93 km/h 93 km/h 10% 0 mm 0 W/m2
10:00 12 °C -19 °C 1026.01 hPa E 93 km/h 93 km/h 10% 0 mm 0 W/m2
10:05 12 °C -19 °C 1026.11 hPa E 93 km/h 93 km/h 10% 0 mm 0 W/m2
10:10 13 °C 11 °C 1026.01 hPa Calm   93 km/h 84% 0 mm 0 W/m2
10:15 14 °C 11 °C 1026.01 hPa SE 2 km/h 13 km/h 82% 0 mm 0 W/m2
10:20 14 °C 11 °C 1026.28 hPa ESE 2 km/h 13 km/h 81% 0 mm 0 W/m2
10:25 15 °C 11 °C 1026.28 hPa ESE 3 km/h 10 km/h 79% 0 mm 0 W/m2
10:30 16 °C 11 °C 1026.11 hPa ESE 2 km/h 11 km/h 76% 0 mm 0 W/m2
10:35 16 °C 11 °C 1026.11 hPa E 2 km/h 11 km/h 73% 0 mm 0 W/m2
10:40 16 °C 11 °C 1026.21 hPa N 2 km/h 10 km/h 70% 0 mm 0 W/m2
10:45 17 °C 11 °C 1026.01 hPa NE 8 km/h 16 km/h 69% 0 mm 0 W/m2
10:50 17 °C 10 °C 1025.8 hPa ENE 2 km/h 13 km/h 66% 0 mm 0 W/m2
10:55 16 °C 10 °C 1025.91 hPa ENE 2 km/h 10 km/h 64% 0 mm 0 W/m2
11:00 16 °C 10 °C 1026.08 hPa E 2 km/h 8 km/h 65% 0 mm 0 W/m2
11:05 17 °C 10 °C 1025.7 hPa SSE 2 km/h 5 km/h 65% 0 mm 0 W/m2
11:10 17 °C 10 °C 1025.6 hPa S 2 km/h 6 km/h 65% 0 mm 0 W/m2
11:15 18 °C 10 °C 1025.8 hPa SE 3 km/h 5 km/h 63% 0 mm 0 W/m2
11:20 18 °C 11 °C 1025.6 hPa E 2 km/h 6 km/h 62% 0 mm 0 W/m2
11:25 18 °C 11 °C 1025.5 hPa ESE 2 km/h 10 km/h 61% 0 mm 0 W/m2
11:30 19 °C 10 °C 1025.6 hPa SSE 2 km/h 6 km/h 59% 0 mm 0 W/m2
11:35 19 °C 10 °C 1025.6 hPa SSE 2 km/h 5 km/h 58% 0 mm 0 W/m2
11:40 19 °C 10 °C 1025.6 hPa E 5 km/h 13 km/h 56% 0 mm 0 W/m2
11:45 19 °C 10 °C 1025.4 hPa NE 10 km/h 21 km/h 55% 0 mm 0 W/m2
11:50 19 °C 10 °C 1025.3 hPa ENE 3 km/h 21 km/h 56% 0 mm 0 W/m2
11:55 19 °C 9 °C 1025.2 hPa NE 5 km/h 16 km/h 55% 0 mm 0 W/m2
12:00 18 °C 9 °C 1025.3 hPa NE 2 km/h 10 km/h 55% 0 mm 0 W/m2
12:05 18 °C 9 °C 1025.2 hPa ENE 2 km/h 5 km/h 56% 0 mm 0 W/m2
12:10 19 °C 10 °C 1025.09 hPa ESE 2 km/h 3 km/h 56% 0 mm 0 W/m2
12:15 19 °C 10 °C 1024.89 hPa E 3 km/h 13 km/h 55% 0 mm 0 W/m2
12:20 19 °C 10 °C 1024.89 hPa Calm   10 km/h 54% 0 mm 0 W/m2
12:25 19 °C 10 °C 1024.99 hPa Calm   5 km/h 54% 0 mm 0 W/m2
12:30 20 °C 10 °C 1024.99 hPa E 2 km/h 19 km/h 53% 0 mm 0 W/m2
12:35 20 °C 10 °C 1024.89 hPa ESE 3 km/h 10 km/h 53% 0 mm 0 W/m2
12:40 20 °C 10 °C 1024.89 hPa ESE 2 km/h 6 km/h 53% 0 mm 0 W/m2
12:45 20 °C 10 °C 1024.62 hPa N 2 km/h 5 km/h 53% 0 mm 0 W/m2
12:50 20 °C 10 °C 1024.79 hPa SE 2 km/h 8 km/h 51% 0 mm 0 W/m2
12:55 20 °C 10 °C 1024.89 hPa ENE 2 km/h 11 km/h 51% 0 mm 0 W/m2
13:00 20 °C 10 °C 1024.89 hPa Calm   8 km/h 51% 0 mm 0 W/m2
13:05 20 °C 10 °C 1024.79 hPa ENE 2 km/h 8 km/h 51% 0 mm 0 W/m2
13:10 20 °C 10 °C 1024.89 hPa NE 2 km/h 8 km/h 52% 0 mm 0 W/m2
13:15 20 °C 9 °C 1024.89 hPa ENE 2 km/h 11 km/h 51% 0 mm 0 W/m2
13:20 20 °C 10 °C 1024.79 hPa E 3 km/h 10 km/h 52% 0 mm 0 W/m2
13:25 20 °C 10 °C 1024.99 hPa ENE 3 km/h 11 km/h 52% 0 mm 0 W/m2
13:30 20 °C 9 °C 1024.99 hPa ENE 2 km/h 11 km/h 52% 0 mm 0 W/m2
13:35 20 °C 10 °C 1024.72 hPa ENE 5 km/h 14 km/h 52% 0 mm 0 W/m2
13:40 20 °C 9 °C 1024.79 hPa NE 3 km/h 16 km/h 51% 0 mm 0 W/m2
13:45 20 °C 10 °C 1024.99 hPa Calm   10 km/h 52% 0 mm 0 W/m2
13:50 20 °C 10 °C 1024.69 hPa ENE 3 km/h 11 km/h 52% 0 mm 0 W/m2
13:55 20 °C 10 °C 1024.69 hPa NE 5 km/h 13 km/h 52% 0 mm 0 W/m2
14:00 20 °C 10 °C 1024.79 hPa NE 2 km/h 13 km/h 52% 0 mm 0 W/m2
14:05 20 °C 9 °C 1024.69 hPa ENE 2 km/h 13 km/h 50% 0 mm 0 W/m2
14:10 20 °C 9 °C 1024.69 hPa ENE 2 km/h 13 km/h 51% 0 mm 0 W/m2
14:15 20 °C 10 °C 1024.69 hPa E 11 km/h 13 km/h 51% 0 mm 0 W/m2
14:20 20 °C 10 °C 1024.69 hPa ESE 2 km/h 18 km/h 52% 0 mm 0 W/m2
14:25 20 °C 9 °C 1024.48 hPa SE 2 km/h 8 km/h 50% 0 mm 0 W/m2
14:30 20 °C 10 °C 1024.48 hPa ENE 2 km/h 5 km/h 50% 0 mm 0 W/m2
14:35 21 °C 10 °C 1024.52 hPa ESE 2 km/h 6 km/h 50% 0 mm 0 W/m2
14:40 21 °C 10 °C 1024.59 hPa SE 2 km/h 8 km/h 50% 0 mm 0 W/m2
14:45 21 °C 10 °C 1024.31 hPa SE 3 km/h 16 km/h 50% 0 mm 0 W/m2
14:50 21 °C 10 °C 1024.42 hPa E 2 km/h 16 km/h 50% 0 mm 0 W/m2
14:55 21 °C 10 °C 1024.59 hPa E 2 km/h 16 km/h 50% 0 mm 0 W/m2
15:00 21 °C 10 °C 1024.59 hPa E 2 km/h 16 km/h 50% 0 mm 0 W/m2
15:05 21 °C 10 °C 1024.38 hPa E 2 km/h 5 km/h 50% 0 mm 0 W/m2
15:10 21 °C 10 °C 1024.31 hPa E 3 km/h 6 km/h 50% 0 mm 0 W/m2
15:15 21 °C 10 °C 1024.38 hPa ESE 2 km/h 11 km/h 50% 0 mm 0 W/m2
15:20 21 °C 10 °C 1024.48 hPa ESE 2 km/h 11 km/h 50% 0 mm 0 W/m2
15:25 21 °C 10 °C 1024.31 hPa ENE 2 km/h 11 km/h 50% 0 mm 0 W/m2
15:30 21 °C 10 °C 1024.59 hPa NE 2 km/h 6 km/h 50% 0 mm 0 W/m2
15:35 21 °C 10 °C 1024.48 hPa NE 2 km/h 8 km/h 49% 0 mm 0 W/m2
15:40 21 °C 10 °C 1024.31 hPa ESE 2 km/h 10 km/h 48% 0 mm 0 W/m2
15:45 21 °C 10 °C 1024.38 hPa E 2 km/h 5 km/h 48% 0 mm 0 W/m2
15:50 21 °C 10 °C 1024.38 hPa NE 2 km/h 10 km/h 48% 0 mm 0 W/m2
15:55 21 °C 10 °C 1024.28 hPa NE 2 km/h 13 km/h 48% 0 mm 0 W/m2
16:00 21 °C 10 °C 1024.42 hPa ENE 3 km/h 10 km/h 49% 0 mm 0 W/m2
16:05 21 °C 10 °C 1024.21 hPa E 3 km/h 13 km/h 50% 0 mm 0 W/m2
16:10 20 °C 9 °C 1024.21 hPa NE 3 km/h 14 km/h 49% 0 mm 0 W/m2
16:15 20 °C 9 °C 1024.11 hPa NE 2 km/h 10 km/h 50% 0 mm 0 W/m2
16:20 20 °C 9 °C 1024.28 hPa ENE 2 km/h 10 km/h 50% 0 mm 0 W/m2
16:25 20 °C 9 °C 1024.21 hPa ENE 5 km/h 8 km/h 50% 0 mm 0 W/m2
16:30 20 °C 9 °C 1024.18 hPa ENE 2 km/h 8 km/h 50% 0 mm 0 W/m2
16:35 20 °C 10 °C 1024.28 hPa E 5 km/h 13 km/h 50% 0 mm 0 W/m2
16:40 20 °C 9 °C 1024.01 hPa ENE 3 km/h 16 km/h 50% 0 mm 0 W/m2
16:45 20 °C 9 °C 1023.91 hPa ENE 2 km/h 8 km/h 51% 0 mm 0 W/m2
16:50 20 °C 9 °C 1024.11 hPa E 2 km/h 11 km/h 51% 0 mm 0 W/m2
16:55 20 °C 9 °C 1023.91 hPa Calm   8 km/h 51% 0 mm 0 W/m2
17:00 20 °C 9 °C 1023.98 hPa SE 2 km/h 3 km/h 50% 0 mm 0 W/m2
17:05 20 °C 9 °C 1023.91 hPa Calm   2 km/h 50% 0 mm 0 W/m2
17:10 20 °C 10 °C 1024.01 hPa N 2 km/h 3 km/h 50% 0 mm 0 W/m2
17:15 20 °C 10 °C 1024.01 hPa Calm   3 km/h 50% 0 mm 0 W/m2
17:20 21 °C 10 °C 1023.91 hPa ENE 2 km/h 5 km/h 50% 0 mm 0 W/m2
17:25 21 °C 10 °C 1024.01 hPa ENE 5 km/h 13 km/h 50% 0 mm 0 W/m2
17:30 20 °C 9 °C 1024.01 hPa ENE 3 km/h 13 km/h 49% 0 mm 0 W/m2
17:35 20 °C 9 °C 1023.84 hPa E 2 km/h 13 km/h 50% 0 mm 0 W/m2
17:40 19 °C 9 °C 1024.01 hPa E 2 km/h 11 km/h 51% 0 mm 0 W/m2
17:45 19 °C 9 °C 1024.01 hPa ENE 3 km/h 8 km/h 52% 0 mm 0 W/m2
17:50 19 °C 9 °C 1023.71 hPa NE 2 km/h 10 km/h 52% 0 mm 0 W/m2
17:55 19 °C 9 °C 1023.87 hPa Calm   10 km/h 52% 0 mm 0 W/m2
18:00 19 °C 9 °C 1023.71 hPa Calm   6 km/h 53% 0 mm 0 W/m2
18:05 19 °C 9 °C 1023.71 hPa ESE 2 km/h 6 km/h 53% 0 mm 0 W/m2
Garrymore Weather Station, Geashill, Tullamore, Offaly, Ireland
Compliments of Weather Underground - 2 mb